Wetbulb
50.16 49.82 49.45 49.51 49.10 49.06 49.20 46.83 43.49 49.71 50.45 44.70 45.22 39.98 40.94 41.68 42.18 44.00 41.10 41.04 39.54 38.48 38.58 37.60 37.66 36.91 40.16 43.66 43.04 39.01 40.52 38.19 31.97 34.23 38.57 40.22 39.56 37.98 38.23 32.96 30.32 32.14 31.26 32.41
50.03 49.27 48.82 48.96 48.83 47.54 45.39 42.96 44.33 50.81 50.06 40.36 40.41 41.55 41.13 42.69 41.63 41.39 40.71 38.91 40.39 41.00 38.77 35.58 38.65 38.83 41.78 43.18 42.11 39.97 41.21 36.07 29.03 30.69 35.88 38.40 35.97 38.19 38.25 36.44 35.01 31.58 30.30 32.63
49.55 48.88 48.33 48.32 48.32 47.28 46.64 43.02 39.46 46.83 48.47 46.22 42.77 40.10 39.57 39.46 43.53 41.97 41.84 40.29 41.46 39.60 38.04 39.84 37.38 38.21 40.57 42.19 42.27 42.05 43.24 36.91 33.60 30.98 33.46 36.96 33.10 36.22 37.77 35.35 31.95 33.05 33.38 35.71
49.33 48.80 48.27 48.05 47.77 46.97 46.93 43.70 38.92 39.66 40.63 41.66 41.81 41.55 40.77 38.79 38.69 42.75 42.40 39.79 39.89 38.78 35.97 37.08 36.61 39.43 39.07 40.66 41.94 41.96 41.15 34.44 33.83 35.41 36.18 36.12 35.32 35.04 36.02 33.21 35.02 32.89 36.18 36.10
49.10 48.58 48.37 47.89 47.55 47.32 45.36 38.17 36.45 40.06 39.75 39.74 39.97 38.53 39.69 39.10 40.34 40.73 38.97 38.07 40.20 40.14 37.76 38.71 36.59 38.99 39.44 37.99 41.04 39.98 40.50 33.29 34.57 32.45 35.37 35.11 32.82 35.46 36.33 35.72 35.79 35.70 36.59 36.21
48.56 48.04 48.01 47.74 47.64 45.77 40.08 40.85 42.68 38.80 38.54 39.48 39.00 40.04 39.67 39.88 41.51 42.67 43.05 41.28 40.59 39.42 41.13 44.06 44.20 44.49 43.64 42.75 39.89 38.78 38.04 35.16 32.67 30.19 33.91 33.20 29.69 34.19 35.51 36.49 38.01 37.51 33.40 38.96
48.12 47.88 47.92 48.04 47.70 45.17 42.26 40.09 39.36 36.51 34.94 37.58 37.63 38.08 38.64 38.94 40.44 39.88 43.03 43.18 41.77 42.94 46.63 46.20 45.32 43.99 43.18 43.06 41.89 42.59 37.74 35.99 34.85 31.22 31.98 24.80 36.12 40.29 39.81 37.58 38.72 39.83 40.17 41.57
48.06 47.83 47.53 47.40 47.59 45.68 43.25 42.43 38.41 35.08 30.78 34.31 35.14 36.60 37.55 39.56 41.89 41.04 42.54 44.28 46.27 47.40 45.07 40.18 36.69 36.63 37.09 38.63 40.58 40.67 41.68 37.75 32.97 29.55 30.05 34.22 36.68 38.05 37.24 36.81 37.76 41.44 40.09 41.45
48.00 47.53 47.42 47.34 47.44 46.30 44.81 43.16 42.44 37.13 30.73 32.94 35.32 33.80 35.41 35.90 38.93 40.84 42.53 46.72 48.57 46.83 43.45 39.29 31.54 29.67 33.82 32.21 35.48 41.24 40.57 40.28 34.97 31.22 26.65 26.06 36.83 42.14 43.33 42.97 36.26 43.53 42.92 42.58
48.05 47.56 47.59 47.07 47.01 45.83 44.81 43.58 42.77 38.66 32.14 35.72 34.90 32.71 33.67 38.13 37.83 36.89 40.56 41.34 43.61 45.87 40.47 35.20 32.00 31.61 37.01 31.57 31.28 32.04 34.03 34.71 31.62 30.72 28.82 32.88 40.76 44.18 45.25 34.74 36.97 44.39 44.69 44.72
47.53 47.70 47.49 46.54 46.22 46.61 44.69 43.08 44.24 38.95 34.31 35.45 36.86 35.71 32.48 34.12 34.04 33.15 36.01 39.61 41.45 40.18 37.08 35.81 35.61 34.03 36.54 34.99 37.04 34.84 33.22 31.51 31.28 32.46 29.16 26.44 42.78 43.30 38.74 43.37 45.56 45.89 44.78 44.30
47.97 48.01 47.93 47.35 47.18 45.83 45.48 39.73 43.68 42.83 36.90 35.55 39.84 39.15 39.49 37.64 36.49 33.03 33.79 33.07 34.27 38.43 38.83 39.91 39.35 35.86 38.46 36.57 31.96 40.01 33.17 37.20 35.04 36.04 35.27 42.30 44.19 44.52 46.39 46.09 44.86 45.26 45.55 44.05
47.13 47.39 46.65 46.47 45.69 45.86 45.45 42.15 42.16 40.27 36.35 34.72 35.51 34.86 38.95 41.03 39.66 40.47 31.23 34.49 36.53 35.62 35.05 35.56 39.56 36.33 40.23 34.77 35.76 37.81 39.55 42.54 37.31 37.49 40.86 41.98 43.50 45.87 45.85 45.65 45.41 45.54 45.30 44.88
46.99 46.93 46.46 46.16 46.08 46.39 46.20 42.11 42.75 41.38 37.20 29.95 32.29 38.23 35.94 39.95 40.03 39.32 38.76 37.36 38.22 36.52 34.34 31.65 36.80 36.84 42.60 38.45 39.53 39.15 41.76 41.31 38.41 38.65 41.85 43.15 44.12 45.96 46.18 45.24 45.83 45.42 45.83 45.37
46.72 46.09 46.36 46.39 46.36 46.27 45.15 44.14 43.81 43.46 36.17 29.74 31.11 37.09 37.31 39.00 38.57 37.27 37.59 36.16 34.60 33.23 31.15 30.54 33.06 37.82 39.97 41.10 40.75 38.82 42.31 40.88 38.28 37.35 43.90 43.62 44.55 46.59 46.88 45.67 45.24 43.82 43.07 43.82
46.59 46.68 46.57 46.32 45.64 44.46 42.61 36.11 41.31 42.48 42.13 33.39 27.20 36.74 34.86 36.06 37.44 35.78 35.25 35.76 34.71 33.64 31.29 31.29 34.34 37.29 38.47 37.38 35.88 42.18 44.71 45.70 46.26 43.77 46.14 46.23 46.48 46.62 45.73 44.23 43.83 43.13 42.48 42.85
46.66 46.93 46.60 45.56 44.16 44.32 37.86 34.78 39.15 42.83 41.67 32.67 28.29 29.48 35.26 36.87 35.93 35.39 34.37 35.53 34.36 33.53 31.63 30.09 32.09 34.93 33.60 38.08 35.56 42.11 44.42 45.24 44.76 45.99 45.23 43.15 43.61 43.13 42.41 41.77 41.79 42.19 42.31 42.51
46.78 46.43 44.52 44.29 44.46 43.08 39.77 41.68 42.83 42.64 37.37 34.49 26.72 27.65 31.29 37.17 33.44 31.20 35.18 31.23 32.74 34.19 31.71 33.08 31.30 33.92 34.88 35.06 40.99 42.17 43.49 44.11 43.22 43.02 42.19 41.07 40.82 40.45 40.58 40.84 40.66 39.94 40.61 41.77
45.78 43.13 42.91 43.42 41.00 37.38 38.82 42.58 43.13 41.55 36.55 30.49 29.70 26.83 28.83 35.58 35.46 35.19 32.69 33.00 26.27 33.47 29.67 30.67 34.81 31.76 30.91 38.81 40.73 41.06 41.63 41.49 42.32 40.01 39.43 39.33 38.83 38.71 39.34 39.37 39.52 39.09 39.78 40.89
42.31 40.80 37.95 34.99 38.24 41.42 41.73 38.70 35.28 33.67 34.55 33.64 28.35 34.30 29.91 35.01 35.25 33.12 32.15 32.53 30.57 28.26 31.43 37.54 34.34 34.48 39.36 37.14 39.31 42.61 40.36 38.96 38.91 37.50 36.79 36.89 36.68 37.60 38.41 38.00 38.79 39.08 39.12 39.59
41.12 36.97 34.69 39.32 41.39 38.73 35.99 32.20 31.12 32.92 29.55 32.42 32.06 32.12 30.37 37.37 31.75 34.19 34.36 33.35 33.67 29.24 34.39 32.59 33.25 34.00 36.88 35.92 35.34 36.28 37.04 37.47 36.93 37.81 37.69 37.60 36.86 36.12 35.95 35.88 37.61 38.80 38.52 38.42
40.24 38.94 40.36 39.72 36.28 33.85 30.36 30.42 33.12 31.22 31.01 34.64 33.14 33.28 34.49 36.30 37.05 34.86 35.78 32.44 34.01 31.58 36.05 33.41 32.07 33.98 33.48 34.65 33.71 33.88 35.36 36.05 36.32 37.42 36.37 36.00 35.39 35.47 35.20 36.12 36.30 36.00 36.34 37.68
40.83 35.81 32.76 32.89 32.90 28.81 27.24 24.49 28.78 28.65 33.20 34.20 32.79 29.04 33.64 36.75 37.76 34.82 34.00 32.05 33.26 36.25 33.56 32.08 34.92 32.99 32.63 33.20 33.58 33.33 34.69 35.63 35.91 35.76 35.67 35.39 35.55 35.78 34.60 34.19 35.98 35.38 33.70 34.80
32.85 28.98 24.69 29.78 28.88 29.79 30.54 30.25 31.00 33.86 33.48 33.32 32.85 30.75 32.11 36.19 33.25 34.76 31.67 34.92 34.63 31.71 29.84 31.29 35.62 33.64 33.25 33.50 33.83 33.85 33.32 34.12 34.36 34.25 34.44 34.14 33.95 33.43 34.33 34.43 36.33 36.01 34.18 33.68
30.41 29.15 26.46 27.71 32.98 32.54 33.29 33.78 32.17 34.53 35.57 33.69 31.77 31.69 32.02 32.17 31.95 34.25 33.33 31.74 30.10 31.48 30.92 35.33 35.79 33.66 32.98 32.71 33.42 33.45 33.11 33.14 32.85 32.97 32.74 32.76 32.52 32.56 32.58 32.61 32.39 32.83 34.53 34.11
30.76 28.67 27.60 30.25 29.23 31.95 31.39 32.10 31.17 35.42 34.16 34.15 32.79 29.79 29.66 31.12 32.02 31.68 31.73 30.80 28.98 33.35 35.89 34.88 33.95 32.50 31.59 32.15 32.14 32.25 31.66 31.18 30.95 31.82 31.66 31.93 31.22 30.39 30.86 32.09 31.38 30.94 30.56 32.09
25.36 28.50 30.31 30.06 29.56 29.62 31.05 31.58 32.00 34.84 32.23 29.15 29.70 27.56 29.63 30.84 30.49 30.82 33.87 32.99 34.58 34.46 35.85 34.23 34.33 32.50 30.49 31.10 30.86 30.98 29.94 29.37 29.52 30.22 30.38 29.87 30.10 29.96 28.93 27.64 29.67 29.96 30.01 30.01
MSLP
1019.67 1019.35 1018.53 1017.56 1016.95 1015.78 1014.43 1013.60 1012.27 1012.07 1012.22 1011.48 1010.54 1010.59 1010.64 1010.86 1010.25 1010.05 1009.69 1009.45 1009.06 1008.56 1008.78 1008.61 1008.51 1008.59 1008.98 1009.58 1009.58 1009.51 1010.40 1011.12 1012.43 1013.01 1013.37 1013.22 1012.69 1012.16 1011.93 1011.49 1011.43 1010.74 1009.78 1008.37
1019.70 1019.01 1018.60 1017.92 1017.10 1016.58 1015.59 1013.97 1012.32 1011.66 1011.58 1010.44 1010.20 1010.41 1010.26 1010.22 1010.00 1009.73 1009.40 1009.22 1009.31 1009.26 1008.84 1008.79 1008.91 1009.24 1009.84 1009.97 1009.82 1009.82 1010.26 1011.22 1012.34 1012.98 1013.31 1013.14 1012.70 1012.26 1012.07 1011.91 1011.75 1010.96 1009.77 1008.54
1019.89 1019.21 1018.53 1017.68 1017.15 1016.42 1015.70 1014.21 1012.72 1011.23 1010.88 1010.67 1009.88 1009.82 1009.71 1009.72 1009.99 1009.66 1009.56 1009.31 1009.25 1009.07 1008.91 1008.97 1009.11 1009.47 1010.16 1010.32 1010.28 1010.60 1010.64 1011.00 1011.53 1011.46 1011.58 1011.54 1012.03 1011.66 1011.87 1012.09 1011.65 1010.41 1009.44 1008.51
1019.95 1019.68 1019.09 1018.10 1017.25 1016.23 1015.56 1014.46 1014.15 1014.06 1011.86 1011.02 1010.71 1010.43 1009.98 1009.59 1009.51 1009.69 1009.52 1009.27 1009.06 1008.71 1008.56 1008.70 1008.90 1009.42 1010.17 1010.62 1010.86 1010.85 1010.94 1011.49 1012.03 1011.88 1011.84 1011.94 1011.84 1011.61 1011.63 1011.66 1011.36 1010.46 1009.17 1008.58
1020.31 1019.95 1019.31 1018.32 1017.11 1016.03 1015.31 1015.69 1015.77 1014.89 1013.41 1012.73 1011.59 1010.87 1010.28 1009.97 1009.74 1009.71 1009.28 1009.22 1008.90 1008.94 1008.54 1008.35 1008.43 1008.94 1009.37 1009.73 1010.66 1010.89 1011.32 1011.85 1012.34 1012.26 1012.03 1011.94 1011.67 1011.41 1011.18 1011.26 1011.04 1010.48 1009.76 1008.92
1020.06 1019.84 1019.58 1019.07 1017.89 1016.69 1016.18 1016.95 1016.50 1016.18 1014.12 1012.98 1012.10 1011.10 1011.02 1010.72 1010.64 1010.11 1009.86 1009.41 1009.11 1009.16 1009.02 1009.08 1008.88 1008.76 1009.00 1009.43 1009.99 1010.53 1011.18 1011.94 1012.47 1012.02 1011.90 1011.69 1010.95 1009.62 1009.79 1009.94 1009.74 1009.66 1009.21 1008.55
1020.24 1020.02 1020.01 1019.63 1019.03 1018.31 1017.81 1018.10 1017.94 1016.62 1014.62 1013.94 1013.12 1012.80 1012.42 1011.79 1011.42 1010.96 1010.20 1009.76 1009.44 1009.97 1009.71 1009.55 1009.41 1009.47 1009.52 1009.70 1009.96 1010.27 1010.75 1011.68 1012.08 1012.03 1011.85 1010.69 1009.02 1008.76 1008.65 1008.83 1008.97 1009.10 1008.73 1008.60
1020.50 1020.32 1020.14 1020.16 1019.48 1019.02 1018.55 1018.62 1018.32 1017.60 1016.23 1015.07 1014.11 1013.76 1013.14 1012.58 1011.83 1011.46 1010.84 1010.41 1010.51 1010.22 1009.98 1009.65 1009.74 1009.88 1010.02 1009.94 1010.22 1010.34 1010.50 1010.91 1011.34 1011.41 1010.48 1008.90 1007.81 1008.21 1008.37 1008.18 1008.01 1008.15 1008.34 1008.75
1020.34 1020.21 1020.05 1019.90 1019.68 1019.35 1018.77 1018.93 1019.01 1018.60 1017.85 1016.02 1016.01 1015.05 1014.21 1013.57 1012.48 1011.88 1011.39 1011.36 1011.07 1010.81 1010.22 1009.91 1009.64 1009.47 1009.23 1009.81 1010.20 1010.53 1010.67 1010.63 1010.96 1010.99 1010.28 1008.51 1007.55 1007.64 1007.84 1007.88 1007.46 1007.70 1008.06 1008.58
1020.27 1020.12 1020.11 1020.15 1019.86 1019.53 1019.08 1019.04 1019.24 1018.84 1018.29 1016.79 1016.70 1015.93 1015.58 1014.91 1014.44 1013.62 1012.69 1012.49 1011.75 1011.51 1010.84 1010.35 1010.12 1009.57 1009.51 1009.18 1009.28 1009.96 1010.37 1010.47 1010.46 1010.39 1009.74 1008.24 1007.12 1007.64 1007.79 1007.69 1008.06 1008.03 1008.38 1008.80
1020.23 1020.39 1020.33 1019.99 1019.96 1019.65 1019.46 1018.81 1019.24 1019.20 1018.49 1017.40 1017.04 1016.93 1016.47 1015.90 1015.63 1015.04 1014.74 1013.84 1012.99 1012.73 1012.08 1011.28 1010.23 1009.56 1008.90 1008.73 1008.55 1008.86 1009.27 1009.63 1009.59 1009.61 1009.18 1008.01 1007.35 1007.80 1007.61 1007.51 1007.82 1008.21 1008.78 1009.23
1020.13 1019.84 1019.81 1020.09 1019.88 1019.53 1019.63 1019.25 1019.11 1019.41 1019.11 1017.58 1017.19 1016.93 1016.83 1016.88 1016.65 1016.69 1015.85 1015.43 1014.83 1014.23 1013.54 1011.92 1010.58 1009.35 1008.43 1008.14 1007.85 1008.36 1008.48 1008.06 1008.12 1008.20 1007.63 1007.32 1007.33 1007.25 1007.70 1008.00 1008.15 1008.48 1008.90 1009.49
1019.83 1019.96 1019.60 1019.73 1019.54 1019.49 1019.22 1019.21 1019.37 1019.36 1018.65 1017.22 1016.66 1016.35 1016.43 1016.61 1016.77 1016.92 1016.93 1015.82 1015.70 1015.91 1016.46 1014.64 1012.05 1009.95 1008.49 1007.69 1007.34 1007.62 1007.89 1007.73 1007.95 1007.79 1006.87 1007.13 1007.31 1007.63 1008.05 1008.38 1008.61 1008.99 1009.35 1009.71
1019.63 1019.68 1019.59 1019.47 1019.23 1019.22 1018.95 1019.06 1019.01 1019.02 1018.95 1018.04 1016.42 1016.42 1016.34 1016.23 1016.29 1016.50 1016.64 1016.41 1016.48 1016.79 1017.11 1015.87 1013.39 1011.02 1009.07 1007.84 1007.18 1006.87 1006.75 1007.45 1007.33 1007.07 1006.86 1007.20 1007.21 1007.39 1007.98 1008.63 1009.03 1009.34 1009.61 1009.85
1019.66 1019.53 1019.32 1019.08 1018.89 1018.77 1018.66 1018.50 1018.54 1018.71 1019.17 1018.14 1016.74 1016.20 1015.92 1015.69 1015.98 1016.19 1016.46 1016.67 1016.79 1016.83 1016.54 1015.94 1014.15 1011.85 1010.17 1008.63 1007.71 1006.58 1006.70 1006.33 1006.52 1006.06 1006.05 1006.34 1006.52 1007.37 1008.32 1008.77 1009.18 1009.63 1009.83 1009.86
1019.43 1019.43 1019.27 1018.95 1018.54 1018.43 1018.50 1018.52 1018.92 1018.97 1018.99 1018.70 1017.37 1016.16 1015.77 1015.79 1015.88 1015.95 1016.17 1016.43 1016.65 1016.77 1016.24 1015.27 1013.87 1012.89 1011.61 1008.56 1006.66 1005.78 1005.60 1005.96 1006.10 1006.21 1006.68 1007.07 1007.58 1008.40 1009.04 1009.31 1009.67 1010.00 1010.12 1010.07
1019.47 1019.23 1019.37 1019.16 1018.72 1018.38 1018.45 1018.67 1018.83 1019.03 1019.15 1019.11 1017.80 1016.46 1015.74 1016.02 1016.13 1016.05 1016.14 1016.20 1016.45 1016.49 1016.09 1014.98 1014.08 1013.12 1012.28 1009.00 1006.26 1005.48 1005.57 1006.11 1006.76 1007.26 1007.58 1008.05 1008.62 1008.92 1009.74 1010.04 1010.19 1010.27 1010.19 1010.07
1019.33 1019.01 1018.93 1019.00 1018.81 1018.84 1018.55 1018.75 1018.96 1019.09 1019.47 1019.40 1018.36 1016.83 1016.08 1015.91 1015.39 1015.70 1015.90 1015.91 1016.01 1015.60 1014.98 1013.83 1012.97 1012.39 1012.18 1009.06 1006.53 1006.37 1006.41 1006.83 1007.45 1007.99 1008.56 1008.99 1009.55 1009.94 1010.18 1010.44 1010.45 1010.35 1010.12 1009.88
1019.15 1018.94 1018.98 1019.05 1018.88 1018.87 1018.94 1018.98 1018.96 1019.30 1019.85 1018.97 1018.26 1017.14 1015.69 1015.97 1015.47 1015.23 1015.58 1015.38 1015.19 1014.41 1013.73 1012.67 1011.55 1011.06 1010.72 1009.01 1007.48 1006.99 1007.18 1007.45 1007.76 1008.94 1009.45 1009.78 1010.08 1010.44 1010.70 1010.79 1010.73 1010.58 1010.31 1010.09
1018.88 1018.98 1019.15 1018.94 1018.92 1019.16 1019.19 1018.94 1019.15 1019.39 1019.36 1019.08 1017.99 1017.05 1016.01 1015.83 1014.83 1014.69 1014.60 1014.19 1013.40 1012.42 1011.36 1010.63 1010.15 1009.67 1009.34 1009.15 1008.66 1007.92 1008.35 1008.71 1009.08 1009.54 1010.03 1010.46 1010.80 1011.08 1011.11 1011.28 1011.29 1011.08 1010.78 1010.51
1019.08 1019.12 1019.33 1019.43 1019.22 1019.06 1018.68 1018.40 1018.50 1018.37 1018.27 1017.93 1017.20 1016.64 1015.86 1015.02 1014.62 1013.79 1013.46 1012.45 1011.89 1010.61 1009.76 1009.79 1009.44 1008.92 1009.03 1009.47 1009.66 1009.70 1009.74 1009.70 1010.10 1010.38 1010.68 1011.00 1011.36 1011.67 1011.82 1011.83 1011.65 1011.29 1010.97 1010.62
1020.00 1020.28 1020.01 1019.64 1019.02 1018.79 1018.65 1017.99 1017.76 1017.73 1017.30 1016.98 1016.62 1015.96 1015.45 1014.51 1013.93 1012.86 1011.96 1011.26 1010.73 1009.59 1009.51 1009.11 1008.62 1008.94 1009.64 1009.88 1010.27 1010.48 1010.51 1010.56 1010.71 1010.87 1011.18 1011.50 1011.86 1012.07 1012.14 1012.06 1011.90 1011.73 1011.44 1010.94
1019.99 1020.14 1019.78 1019.23 1018.97 1018.53 1018.32 1018.14 1017.68 1017.56 1017.29 1016.89 1016.70 1016.20 1015.26 1014.06 1013.12 1012.17 1011.36 1010.60 1010.06 1009.61 1009.25 1008.72 1008.83 1009.57 1010.15 1010.51 1010.83 1011.08 1011.12 1011.09 1011.23 1011.45 1011.72 1011.92 1012.17 1012.39 1012.48 1012.33 1012.12 1011.86 1011.57 1011.33
1020.18 1020.10 1019.47 1019.01 1018.47 1018.24 1018.07 1017.97 1017.87 1017.56 1017.33 1016.97 1016.68 1016.17 1015.28 1013.82 1012.91 1011.74 1010.93 1010.39 1010.00 1009.39 1008.99 1008.65 1009.07 1009.73 1010.39 1010.93 1011.26 1011.32 1011.51 1011.66 1011.76 1012.00 1012.20 1012.38 1012.53 1012.63 1012.58 1012.49 1012.39 1012.13 1011.85 1011.60
1020.43 1020.36 1019.63 1018.94 1018.28 1018.14 1017.96 1018.09 1018.10 1017.66 1017.36 1017.02 1016.42 1015.89 1015.31 1013.82 1012.61 1011.47 1010.84 1010.24 1009.65 1009.29 1009.15 1009.34 1009.62 1010.33 1010.88 1011.30 1011.60 1011.81 1012.00 1012.15 1012.41 1012.62 1012.71 1012.82 1012.97 1012.87 1012.68 1012.70 1012.60 1012.33 1012.15 1011.96
1020.67 1020.43 1019.75 1019.07 1018.83 1018.22 1018.10 1017.95 1017.79 1017.63 1017.37 1016.91 1016.58 1015.80 1014.67 1013.31 1012.32 1011.34 1010.50 1010.15 1009.75 1009.81 1010.02 1010.26 1010.53 1010.98 1011.46 1011.75 1012.09 1012.36 1012.61 1012.78 1012.95 1013.14 1013.30 1013.33 1013.33 1013.27 1013.14 1012.96 1012.84 1012.72 1012.57 1012.38
1020.53 1019.97 1019.60 1019.31 1019.00 1018.31 1018.00 1017.93 1017.74 1017.88 1017.73 1017.20 1016.83 1016.03 1014.50 1013.69 1012.32 1011.28 1010.71 1010.47 1010.70 1010.82 1010.68 1010.91 1011.19 1011.62 1012.02 1012.34 1012.68 1012.96 1013.15 1013.27 1013.51 1013.70 1013.78 1013.80 1013.78 1013.63 1013.46 1013.34 1013.34 1013.27 1013.03 1012.83
Wind_Speed
18 23 25 25 28 28 8 4 4 3 3 1 1 5 6 2 1 3 2 0 2 1 3 4 2 3 3 2 2 3 3 5 5 2 2 4 6 5 11 4 5 1 4 3
17 20 23 25 26 24 6 6 4 4 3 1 3 4 5 2 4 2 2 2 1 2 4 2 3 3 2 2 1 3 5 5 5 4 5 5 6 10 7 1 3 5 4 5
17 19 21 22 25 24 4 4 3 1 2 1 3 4 5 4 2 2 1 1 3 6 6 1 6 6 2 2 2 5 0 3 2 1 4 4 6 11 12 9 4 5 9 7
16 18 20 23 27 24 4 2 3 3 4 2 3 3 1 3 2 2 2 3 6 5 4 5 4 7 6 3 4 2 3 2 1 3 1 3 4 7 13 14 12 8 3 11
16 17 18 20 24 25 2 4 5 6 5 6 6 2 2 2 0 2 2 4 3 4 3 4 6 8 7 6 8 6 3 2 1 3 3 6 9 11 11 16 17 18 15 14
14 14 15 19 20 16 5 4 3 2 2 5 5 2 3 1 4 2 3 3 4 4 2 5 5 2 4 4 7 10 6 5 3 1 2 3 10 19 20 15 11 16 16 12
14 14 14 16 16 14 4 4 2 3 4 4 5 6 5 5 5 5 4 4 4 4 5 7 5 2 3 6 5 6 7 5 3 1 3 5 3 3 2 19 13 15 14 11
14 14 13 14 13 11 5 3 3 4 6 7 5 7 7 9 5 5 4 1 4 6 2 3 5 4 3 4 3 7 8 7 3 3 6 10 10 7 6 8 8 18 17 15
12 10 12 12 8 6 3 3 2 2 4 5 7 10 7 5 5 4 2 2 2 4 4 2 3 4 4 5 5 4 6 8 5 3 3 4 5 3 4 5 4 4 11 8
12 8 10 10 9 6 3 1 2 1 3 2 5 5 7 6 4 5 3 5 2 2 4 5 4 4 1 5 6 7 7 7 9 8 5 7 2 5 5 5 5 5 5 4
9 11 10 7 5 7 2 2 2 2 3 9 7 6 6 6 5 4 6 4 4 1 6 4 5 6 7 5 5 7 10 6 6 8 5 8 8 6 4 6 6 6 5 4
10 10 9 9 12 4 1 2 2 2 4 6 10 12 13 14 10 5 3 3 5 5 5 5 4 6 4 8 5 10 7 7 4 6 5 4 5 3 6 2 2 2 4 4
7 8 5 10 9 10 6 2 2 2 3 7 4 1 1 6 11 10 4 2 3 3 3 4 4 6 6 7 10 8 8 8 4 4 7 10 5 6 1 0 2 4 3 2
7 7 6 9 11 12 8 2 3 2 2 5 1 2 1 2 6 10 13 13 3 2 2 3 4 4 5 8 5 9 4 11 10 8 9 1 6 8 7 6 4 2 2 4
8 4 9 9 11 12 6 3 1 2 2 4 7 15 4 2 8 10 10 10 10 6 3 4 4 6 3 3 3 8 7 8 8 5 6 9 2 11 6 4 3 0 4 5
9 12 12 10 11 7 2 2 1 1 2 3 4 4 3 2 3 6 8 7 6 3 4 5 4 6 7 5 10 13 11 11 10 5 3 4 7 4 1 1 1 4 7 8
12 14 14 13 11 3 1 2 2 4 2 2 4 4 1 1 1 2 3 4 3 5 4 7 9 5 3 6 9 5 9 9 7 4 5 4 3 3 1 3 6 7 8 9
14 14 11 4 3 2 2 2 7 5 1 2 3 4 3 7 3 2 3 3 4 4 5 6 9 4 1 6 10 5 6 7 7 6 3 5 2 2 3 4 6 8 9 8
13 10 2 2 0 1 2 3 2 2 1 2 2 3 3 2 2 2 4 4 4 4 6 6 6 5 7 9 5 6 8 7 6 6 2 1 2 3 5 5 7 8 9 7
7 2 2 2 2 5 5 4 2 1 2 2 3 2 4 2 3 5 3 5 4 5 8 4 4 4 10 2 5 3 6 6 6 3 2 1 0 2 5 7 8 8 9 9
3 3 2 3 4 2 2 1 2 2 3 3 3 4 4 3 4 4 6 3 3 4 4 4 5 4 4 5 4 4 4 5 4 3 3 2 3 5 6 7 7 8 9 9
5 3 3 3 2 1 3 2 1 3 3 2 5 7 7 3 4 4 4 3 3 2 4 2 2 3 4 5 4 3 3 3 4 2 1 3 2 4 5 6 6 7 9 9
1 2 2 3 0 2 3 6 2 4 5 3 6 8 5 4 3 4 2 3 1 2 2 2 2 3 3 4 4 3 3 3 3 2 2 2 3 4 5 6 5 5 6 6
1 2 3 1 2 3 3 3 3 2 4 6 6 5 4 3 3 2 3 1 2 2 2 1 2 4 5 4 3 4 4 4 4 3 3 3 4 4 4 5 5 6 6 7
2 1 3 2 2 2 2 1 3 3 4 6 6 4 4 4 4 2 3 2 3 2 1 2 1 5 5 4 4 4 4 4 3 3 3 4 4 4 4 5 6 6 6 6
1 2 3 2 2 2 1 2 4 2 4 5 3 4 4 4 3 3 2 3 1 3 3 2 2 5 4 4 4 3 3 2 2 3 3 4 4 6 6 5 6 7 7 6
2 3 3 3 4 4 2 3 3 3 4 3 3 4 3 6 4 3 2 3 3 3 4 2 2 5 4 4 3 3 2 1 1 1 2 3 4 4 4 6 7 7 6 5
Wind_Direction
349 350 353 355 352 349 358 304 283 126 203 275 231 124 149 174 146 176 153 213 13 222 175 178 151 154 50 126 171 133 31 96 150 150 97 316 316 230 210 239 183 262 314 83
350 355 355 353 353 355 328 317 291 156 253 305 119 129 144 213 191 177 182 152 253 204 168 163 142 122 44 141 198 167 160 139 131 173 190 184 222 212 226 191 346 212 269 113
354 356 353 355 351 348 296 302 318 313 239 350 292 180 165 179 171 231 244 135 195 174 175 239 165 145 128 133 30 13 280 169 298 285 79 116 193 211 203 199 214 215 234 111
355 359 354 357 352 347 280 9 53 345 319 85 334 294 332 203 200 213 235 195 243 212 170 170 156 140 142 166 155 161 267 177 102 287 65 149 220 204 208 211 221 228 246 226
358 358 352 359 1 338 51 8 353 338 280 293 274 158 197 276 54 287 167 263 193 220 257 247 179 182 183 178 179 193 184 147 96 278 225 244 259 244 222 219 225 244 252 262
358 359 359 1 13 357 44 10 340 312 360 297 270 55 34 62 329 154 307 271 176 214 349 351 8 170 186 163 176 188 179 144 173 249 199 266 265 235 223 221 217 222 229 248
356 2 357 2 16 16 25 35 305 311 320 288 337 342 330 314 337 326 349 206 295 61 124 121 106 109 150 151 166 185 182 167 146 248 237 234 73 99 203 222 226 220 238 237
0 358 348 356 8 19 31 22 5 6 303 336 289 330 316 300 271 255 262 113 6 157 217 163 150 156 186 184 210 198 203 185 180 238 222 292 245 178 182 179 214 226 227 238
349 345 359 350 10 10 352 40 357 9 324 57 334 328 323 327 316 251 192 58 343 205 254 228 234 216 206 169 172 228 213 239 224 199 256 257 60 131 188 184 193 120 197 210
340 338 347 347 25 35 345 20 29 304 300 310 329 345 341 340 325 294 317 352 227 251 233 230 219 253 8 213 205 182 194 211 225 228 255 281 272 127 171 215 101 105 135 140
332 343 328 341 19 357 341 340 182 320 282 293 274 272 284 301 285 290 4 257 202 217 236 223 190 239 200 236 228 180 183 194 203 217 230 259 123 125 231 93 87 115 117 111
338 325 323 312 317 340 356 284 94 218 237 280 302 267 279 263 263 303 293 317 296 346 273 236 229 221 200 228 222 195 214 215 208 213 222 128 190 296 91 31 32 128 148 125
333 357 3 333 332 321 309 202 159 246 269 278 242 248 310 234 241 244 244 258 310 49 10 313 300 253 212 215 239 192 230 217 235 201 243 229 197 198 255 133 136 123 104 123
316 325 315 321 312 318 340 198 187 255 333 281 293 167 296 221 206 213 224 256 236 117 59 321 275 231 220 245 268 216 196 164 211 237 263 299 239 218 174 156 149 195 239 249
320 315 306 317 314 317 312 293 284 271 252 306 304 302 2 221 242 231 231 239 253 259 242 222 256 298 273 227 250 226 187 195 204 224 242 222 277 180 150 190 204 31 316 292
302 301 303 314 320 327 273 216 107 213 198 280 294 351 284 330 346 225 219 224 226 229 251 251 235 239 303 248 231 232 206 230 222 263 142 71 105 121 115 267 215 305 297 287
315 315 323 322 313 224 261 23 80 152 81 267 285 286 206 117 223 179 200 209 207 227 240 243 256 271 17 266 223 180 210 198 183 172 146 181 157 116 115 313 308 305 290 279
321 328 329 350 68 147 171 71 143 145 181 233 278 278 271 179 197 163 191 206 203 217 238 242 234 226 139 275 228 143 149 152 165 154 73 64 58 304 323 320 311 300 288 279
330 333 301 247 217 273 60 32 300 90 284 289 252 283 336 119 255 145 196 179 220 234 228 228 199 177 211 273 279 187 167 176 163 130 115 7 297 332 325 325 310 294 293 287
346 326 274 255 62 340 291 184 197 164 187 231 262 276 271 227 211 192 219 194 227 230 213 212 217 213 232 290 329 104 117 115 125 150 166 89 255 299 334 324 313 300 293 291
354 353 323 329 323 264 252 266 242 150 235 198 246 255 276 220 238 232 201 199 208 253 144 210 193 222 164 146 106 88 94 88 82 67 84 57 337 317 317 312 307 305 303 294
342 319 287 270 289 254 285 309 261 237 353 328 314 323 289 269 231 238 202 242 219 319 141 256 258 86 110 144 132 106 99 115 125 137 92 60 350 317 304 301 313 319 317 317
260 261 264 262 279 26 17 350 4 322 349 342 319 321 293 289 258 260 263 249 271 318 237 264 26 120 154 150 145 125 100 109 126 118 57 359 337 319 300 309 322 319 318 322
281 297 291 270 154 194 215 239 265 297 268 298 308 284 274 295 269 279 270 16 278 264 255 299 34 152 143 141 141 147 120 110 95 64 27 18 358 332 327 347 335 327 337 348
273 299 284 257 339 278 277 331 291 248 278 300 298 265 247 268 273 247 287 234 251 263 302 7 97 147 141 133 125 112 98 82 76 46 24 14 351 340 2 3 351 348 346 348
227 226 257 224 276 271 263 256 265 265 306 289 231 271 275 260 306 269 254 272 300 30 357 3 141 149 137 133 119 102 88 68 39 35 11 351 358 356 344 345 5 356 348 341
195 230 240 265 285 258 284 303 308 353 309 317 309 280 333 304 259 259 311 334 2 339 330 325 188 161 145 135 131 144 134 105 71 43 350 0 348 333 358 0 353 344 338 329